period_start,C,m1,H,J0,J1,J2,J3,J4,J5,JA,JB,JC,JD,JJ,JK,JN,#
2014-02-25 00:00:07,0.24,11.15,1.00,16.62,22.55,25.68,6.20,32.88,1031.74,2052.71,1148.79,1480.73,1602.55,349.55,335.45,30.42,0000 0000 0000 0000 000000
2014-02-25 00:01:07,0.77,11.16,1.00,16.63,22.55,25.68,6.36,32.79,1031.74,2052.76,1148.32,1480.32,1602.21,350.51,336.77,30.43,0000 0000 0000 0000 000000
2014-02-25 00:02:07,0.82,11.16,1.00,16.62,22.54,25.66,6.21,32.83,1031.74,2052.79,1148.18,1480.13,1602.07,350.06,335.96,30.43,0000 0000 0000 0000 000000
2014-02-25 00:03:07,0.28,11.16,1.00,16.62,22.54,25.64,6.19,32.79,1031.75,2052.82,1148.06,1480.04,1601.92,349.26,335.32,30.44,0000 0000 0000 0000 000000
2014-02-25 00:04:08,0.26,11.16,1.00,16.62,22.54,25.58,6.33,32.75,1031.75,2052.89,1148.02,1479.98,1601.45,349.97,336.00,30.45,0000 0000 0000 0000 000000
2014-02-25 00:05:08,0.37,11.17,1.00,16.62,22.54,25.60,6.32,32.75,1031.75,2052.87,1147.71,1479.66,1601.17,349.66,335.70,30.45,0000 0000 0000 0000 000000
2014-02-25 00:06:08,0.64,11.17,1.00,16.64,22.54,25.65,6.23,32.88,1031.74,2052.79,1147.26,1479.26,1601.05,349.94,335.95,30.46,0000 0000 0000 0000 000000
2014-02-25 00:07:08,0.57,11.17,1.00,16.62,22.54,25.67,6.27,32.88,1031.69,2052.87,1147.09,1479.09,1600.86,349.47,335.51,30.46,0000 0000 0000 0000 000000
2014-02-25 00:08:08,0.41,11.17,1.00,16.62,22.53,25.67,6.26,32.71,1031.69,2052.93,1146.81,1479.01,1600.39,350.94,337.32,30.47,0000 0000 0000 0000 000000
2014-02-25 00:09:08,0.61,11.18,1.00,16.61,22.53,25.61,6.47,32.79,1031.67,2052.96,1146.33,1478.76,1600.15,350.27,336.27,30.47,0000 0000 0000 0000 000000
2014-02-25 00:10:09,0.71,11.18,1.00,16.62,22.52,25.57,6.36,32.63,1031.68,2052.94,1146.11,1478.33,1600.04,350.34,336.33,30.48,0000 0000 0000 0000 000000
2014-02-25 00:11:09,0.45,11.19,1.00,16.61,22.52,25.64,6.45,32.75,1031.70,2052.93,1145.90,1478.12,1599.97,350.11,336.13,30.49,0000 0000 0000 0000 000000
2014-02-25 00:12:09,0.35,11.19,1.00,16.62,22.52,25.61,6.38,32.42,1031.71,2052.96,1145.39,1478.03,1599.57,351.36,337.31,30.49,0000 0000 0000 0000 000000
2014-02-25 00:13:09,0.72,11.19,1.00,16.62,22.52,25.64,6.28,32.75,1031.70,2052.98,1145.14,1477.89,1599.23,349.10,335.60,30.50,0000 0000 0000 0000 000000
2014-02-25 00:14:10,0.44,11.19,1.00,16.62,22.52,25.61,6.38,32.83,1031.70,2052.98,1144.99,1477.49,1599.08,350.39,336.39,30.50,0000 0000 0000 0000 000000
2014-02-25 00:15:10,0.47,11.20,1.00,16.62,22.52,25.61,6.28,32.79,1031.65,2052.98,1144.53,1477.18,1599.02,350.11,336.00,30.51,0000 0000 0000 0000 000000
2014-02-25 00:16:10,0.67,11.20,1.00,16.62,22.52,25.59,6.24,32.92,1031.64,2052.98,1144.19,1477.06,1598.97,349.63,335.63,30.52,0000 0000 0000 0000 000000
2014-02-25 00:17:11,0.34,11.20,1.00,16.62,22.52,25.60,6.23,32.83,1031.58,2052.98,1144.07,1477.02,1598.61,349.87,335.85,30.52,0000 0000 0000 0000 000000
2014-02-25 00:18:11,0.29,11.20,1.00,16.64,22.51,25.63,6.39,33.00,1031.51,2052.97,1143.77,1476.77,1598.26,350.48,336.53,30.53,0000 0000 0000 0000 000000
2014-02-25 00:19:11,0.62,11.21,1.00,16.63,22.50,25.63,6.25,33.00,1031.44,2052.98,1143.31,1476.32,1598.09,349.69,335.63,30.53,0000 0000 0000 0000 000000
2014-02-25 00:20:11,0.75,11.21,1.00,16.62,22.50,25.59,6.21,32.92,1031.37,2052.98,1143.10,1476.11,1598.02,349.60,335.18,30.54,0000 0000 0000 0000 000000
2014-02-25 00:21:12,0.34,11.21,1.00,16.62,22.50,25.60,6.48,32.96,1031.35,2052.98,1142.88,1476.02,1597.64,350.74,336.79,30.55,0000 0000 0000 0000 000000
2014-02-25 00:22:12,0.37,11.22,1.00,16.62,22.50,25.59,6.39,32.88,1031.44,2052.99,1142.39,1475.80,1597.25,350.28,336.10,30.55,0000 0000 0000 0000 000000
2014-02-25 00:23:12,0.75,11.22,1.00,16.62,22.49,25.60,6.28,32.79,1031.42,2052.99,1142.14,1475.36,1597.08,348.36,334.71,30.56,0000 0000 0000 0000 000000
2014-02-25 00:24:12,0.62,11.22,1.00,16.62,22.49,25.62,6.13,32.83,1031.37,2052.99,1142.05,1475.14,1597.02,349.06,335.01,30.56,0000 0000 0000 0000 000000
2014-02-25 00:25:13,0.25,11.23,1.00,16.62,22.49,25.61,6.34,32.96,1031.40,2052.99,1142.01,1475.05,1596.65,349.95,335.97,30.57,0000 0000 0000 0000 000000
2014-02-25 00:26:13,0.23,11.23,1.00,16.60,22.49,25.63,6.38,32.83,1031.49,2052.98,1141.81,1475.00,1596.25,350.85,336.77,30.57,0000 0000 0000 0000 000000
2014-02-25 00:27:13,0.34,11.23,1.00,16.59,22.49,25.63,6.26,32.79,1031.47,2052.99,1141.37,1474.68,1596.06,349.56,335.35,30.58,0000 0000 0000 0000 000000
2014-02-25 00:28:13,0.70,11.23,1.00,16.60,22.49,25.66,6.13,32.75,1031.47,2052.99,1141.13,1474.27,1595.87,349.29,335.28,30.59,0000 0000 0000 0000 000000
2014-02-25 00:29:14,0.56,11.24,1.00,16.61,22.49,25.65,6.25,33.13,1031.47,2052.99,1140.93,1474.10,1595.39,348.17,334.20,30.59,0000 0000 0000 0000 000000
2014-02-25 00:30:14,0.45,11.24,1.00,16.60,22.49,25.60,6.26,32.88,1031.45,2052.99,1140.44,1474.00,1595.14,349.76,335.72,30.60,0000 0000 0000 0000 000000
2014-02-25 00:31:14,0.64,11.24,1.00,16.62,22.48,25.62,6.19,33.08,1031.43,2052.99,1140.16,1473.64,1595.03,349.76,335.70,30.60,0000 0000 0000 0000 000000
2014-02-25 00:32:14,0.54,11.25,1.00,16.61,22.48,25.66,6.27,32.92,1031.40,2052.99,1140.05,1473.26,1594.74,350.44,336.35,30.61,0000 0000 0000 0000 000000
2014-02-25 00:33:14,0.47,11.25,1.00,16.61,22.47,25.65,6.39,32.88,1031.37,2052.99,1139.74,1473.09,1594.32,350.36,336.26,30.62,0000 0000 0000 0000 000000
2014-02-25 00:34:15,0.55,11.25,1.00,16.61,22.47,25.65,6.15,32.79,1031.33,2052.99,1139.32,1473.03,1594.11,349.50,335.43,30.62,0000 0000 0000 0000 000000
2014-02-25 00:35:15,0.49,11.26,1.00,16.61,22.47,25.58,6.18,32.71,1031.31,2052.99,1139.12,1472.91,1594.00,349.22,334.83,30.63,0000 0000 0000 0000 000000
2014-02-25 00:36:15,0.27,11.26,1.00,16.60,22.47,25.56,6.16,32.88,1031.28,2052.99,1139.02,1472.44,1593.64,349.19,335.13,30.63,0000 0000 0000 0000 000000
2014-02-25 00:37:15,0.59,11.26,1.00,16.59,22.47,25.60,6.40,32.83,1031.28,2052.99,1138.60,1472.16,1593.25,351.89,337.62,30.64,0000 0000 0000 0000 000000
2014-02-25 00:38:16,0.69,11.26,1.00,16.59,22.47,25.59,6.29,32.67,1031.29,2052.99,1138.22,1472.06,1593.08,351.08,336.94,30.64,0000 0000 0000 0000 000000
2014-02-25 00:39:16,0.42,11.27,1.00,16.59,22.47,25.58,6.27,32.88,1031.29,2052.99,1138.07,1472.01,1592.98,348.92,335.46,30.65,0000 0000 0000 0000 000000
2014-02-25 00:40:16,0.26,11.27,1.00,16.59,22.47,25.61,6.26,32.88,1031.28,2052.99,1137.74,1471.76,1592.69,349.67,335.65,30.66,0000 0000 0000 0000 000000
2014-02-25 00:41:17,0.61,11.27,1.00,16.59,22.47,25.59,6.33,32.83,1031.30,2052.99,1137.29,1471.32,1592.27,350.39,336.16,30.66,0000 0000 0000 0000 000000
2014-02-25 00:42:17,0.81,11.28,1.00,16.59,22.47,25.60,6.44,32.71,1031.30,2052.99,1137.09,1471.11,1592.10,351.12,336.82,30.67,0000 0000 0000 0000 000000
2014-02-25 00:43:17,0.35,11.28,1.00,16.59,22.47,25.62,6.13,32.71,1031.31,2052.99,1136.94,1471.03,1592.01,349.45,334.92,30.67,0000 0000 0000 0000 000000
2014-02-25 00:44:17,0.23,11.28,1.00,16.60,22.46,25.60,6.23,32.88,1031.32,2052.99,1136.54,1470.96,1591.67,349.06,335.26,30.68,0000 0000 0000 0000 000000
2014-02-25 00:45:18,0.58,11.28,1.00,16.60,22.46,25.60,6.20,32.88,1031.30,2052.99,1136.20,1470.56,1591.29,350.47,336.36,30.69,0000 0000 0000 0000 000000
2014-02-25 00:46:18,0.69,11.29,1.00,16.59,22.45,25.61,6.55,33.04,1031.30,2052.99,1136.06,1470.21,1591.10,351.41,337.27,30.69,0000 0000 0000 0000 000000
2014-02-25 00:47:18,0.42,11.29,1.00,16.59,22.45,25.56,6.40,32.88,1031.29,2052.99,1135.91,1470.08,1590.97,351.02,336.89,30.70,0000 0000 0000 0000 000000
2014-02-25 00:48:18,0.29,11.29,1.00,16.60,22.45,25.58,6.38,32.83,1031.30,2052.99,1135.44,1469.99,1590.54,349.73,335.64,30.70,0000 0000 0000 0000 000000
2014-02-25 00:49:18,0.67,11.30,1.00,16.61,22.45,25.58,6.26,32.79,1031.28,2052.99,1135.17,1469.72,1590.19,349.58,335.08,30.71,0000 0000 0000 0000 000000
2014-02-25 00:50:18,0.55,11.30,1.00,16.61,22.44,25.55,6.32,33.00,1031.29,2052.99,1134.97,1469.30,1590.06,349.83,335.33,30.71,0000 0000 0000 0000 000000
2014-02-25 00:51:19,0.53,11.30,1.00,16.62,22.44,25.59,6.27,32.92,1031.28,2052.99,1134.50,1469.11,1589.90,349.69,335.58,30.72,0000 0000 0000 0000 000000
2014-02-25 00:52:19,0.60,11.31,1.00,16.62,22.44,25.57,6.32,32.83,1031.29,2052.99,1134.18,1469.03,1589.47,350.25,336.13,30.73,0000 0000 0000 0000 000000
2014-02-25 00:53:19,0.50,11.31,1.00,16.63,22.44,25.55,6.28,32.88,1031.28,2052.99,1134.04,1468.78,1589.19,350.02,335.89,30.73,0000 0000 0000 0000 000000
2014-02-25 00:54:19,0.43,11.31,1.00,16.64,22.44,25.54,6.27,32.96,1031.27,2052.99,1133.63,1468.32,1589.06,349.19,335.42,30.74,0000 0000 0000 0000 000000
2014-02-25 00:55:20,0.70,11.32,1.00,16.64,22.44,25.52,6.28,32.96,1031.27,2052.99,1133.24,1468.12,1588.93,349.95,335.71,30.74,0000 0000 0000 0000 000000
2014-02-25 00:56:20,0.54,11.32,1.00,16.64,22.44,25.53,6.30,33.04,1031.29,2052.99,1133.06,1468.02,1588.46,350.35,336.19,30.75,0000 0000 0000 0000 000000
2014-02-25 00:57:20,0.45,11.32,1.00,16.64,22.44,25.54,6.20,32.92,1031.29,2052.99,1132.59,1467.79,1588.17,350.14,335.98,30.76,0000 0000 0000 0000 000000
2014-02-25 00:58:21,0.65,11.33,1.00,16.63,22.44,25.51,6.48,33.13,1031.27,2052.99,1132.22,1467.36,1588.06,350.78,336.61,30.76,0000 0000 0000 0000 000000
2014-02-25 00:59:21,0.67,11.33,1.00,16.63,22.44,25.49,6.13,32.92,1031.29,2052.99,1132.03,1467.14,1587.94,350.12,335.62,30.77,0000 0000 0000 0000 000000
2014-02-25 01:00:21,0.39,11.33,1.00,16.64,22.43,25.54,6.33,32.75,1031.28,2052.99,1131.56,1467.04,1587.55,350.60,336.59,30.77,0000 0000 0000 0000 000000
2014-02-25 01:01:21,0.60,11.34,1.00,16.64,22.43,25.55,6.27,32.88,1031.28,2052.99,1131.20,1466.89,1587.22,349.87,335.56,30.78,0000 0000 0000 0000 000000
2014-02-25 01:02:22,0.56,11.34,1.00,16.64,22.42,25.51,6.43,33.04,1031.27,2052.99,1131.06,1466.43,1587.08,350.13,335.53,30.79,0000 0000 0000 0000 000000
2014-02-25 01:03:22,0.51,11.34,1.00,16.64,22.42,25.48,6.30,33.00,1031.27,2052.99,1130.88,1466.15,1586.96,349.46,334.97,30.79,0000 0000 0000 0000 000000
2014-02-25 01:04:22,0.39,11.34,1.00,16.64,22.42,25.52,6.23,32.79,1031.28,2052.99,1130.40,1466.05,1586.54,349.48,335.72,30.80,0000 0000 0000 0000 000000
2014-02-25 01:05:23,0.65,11.35,1.00,16.64,22.42,25.57,6.20,32.96,1031.29,2053.00,1130.15,1465.96,1586.20,349.18,335.07,30.80,0000 0000 0000 0000 000000
2014-02-25 01:06:23,0.44,11.35,1.00,16.64,22.42,25.57,6.16,32.83,1031.28,2053.01,1130.00,1465.54,1586.07,348.88,334.30,30.81,0000 0000 0000 0000 000000
2014-02-25 01:07:23,0.49,11.35,1.00,16.64,22.42,25.53,6.42,32.79,1031.29,2053.00,1129.58,1465.20,1585.98,350.71,336.53,30.81,0000 0000 0000 0000 000000
2014-02-25 01:08:24,0.63,11.36,1.00,16.64,22.42,25.55,6.23,32.88,1031.29,2053.00,1129.23,1465.07,1585.57,349.42,335.30,30.82,0000 0000 0000 0000 000000
2014-02-25 01:09:24,0.57,11.36,1.00,16.64,22.42,25.56,6.38,32.88,1031.30,2053.02,1129.08,1465.02,1585.25,350.28,336.12,30.83,0000 0000 0000 0000 000000
2014-02-25 01:10:24,0.31,11.36,1.00,16.65,22.42,25.49,6.27,32.96,1031.29,2053.02,1129.00,1464.92,1585.08,349.61,335.47,30.83,0000 0000 0000 0000 000000
2014-02-25 01:11:24,0.19,11.36,1.00,16.65,22.42,25.54,6.18,32.92,1031.28,2053.00,1128.91,1464.48,1584.98,349.62,335.48,30.84,0000 0000 0000 0000 000000
2014-02-25 01:12:25,0.43,11.37,1.00,16.64,22.42,25.55,6.29,32.92,1031.27,2053.00,1128.49,1464.19,1584.56,350.29,336.12,30.84,0000 0000 0000 0000 000000
2014-02-25 01:13:25,0.71,11.37,1.00,16.64,22.42,25.54,6.42,32.96,1031.28,2053.02,1128.17,1464.06,1584.21,350.05,335.98,30.85,0000 0000 0000 0000 000000
2014-02-25 01:14:25,0.54,11.37,1.00,16.65,22.42,25.54,6.23,32.71,1031.27,2053.01,1127.90,1464.00,1584.07,350.08,335.91,30.86,0000 0000 0000 0000 000000
2014-02-25 01:15:25,0.35,11.37,1.00,16.66,22.42,25.57,6.39,32.75,1031.27,2053.01,1127.40,1463.65,1583.95,350.58,336.31,30.86,0000 0000 0000 0000 000000
2014-02-25 01:16:26,0.70,11.38,1.00,16.67,22.42,25.55,6.23,32.79,1031.27,2053.01,1127.15,1463.26,1583.67,349.77,335.15,30.87,0000 0000 0000 0000 000000
2014-02-25 01:17:26,0.57,11.38,1.00,16.67,22.42,25.54,6.32,32.79,1031.28,2053.01,1127.05,1463.10,1583.26,349.97,335.56,30.87,0000 0000 0000 0000 000000
2014-02-25 01:18:26,0.34,11.39,1.00,16.67,22.42,25.52,6.22,32.88,1031.27,2053.00,1126.99,1463.03,1583.10,349.54,335.60,30.88,0000 0000 0000 0000 000000
2014-02-25 01:19:26,0.20,11.39,1.00,16.67,22.42,25.55,6.43,32.79,1031.27,2053.00,1126.71,1462.83,1582.98,350.15,335.96,30.88,0000 0000 0000 0000 000000
2014-02-25 01:20:27,0.50,11.39,1.00,16.68,22.42,25.53,6.32,32.92,1031.27,2053.01,1126.30,1462.37,1582.54,350.23,336.15,30.89,0000 0000 0000 0000 000000
2014-02-25 01:21:27,0.80,11.39,1.00,16.68,22.42,25.54,6.28,32.92,1031.27,2053.03,1126.11,1462.14,1582.21,349.39,335.45,30.90,0000 0000 0000 0000 000000
2014-02-25 01:22:27,0.44,11.40,1.00,16.69,22.42,25.50,6.32,32.96,1031.27,2053.03,1126.00,1462.03,1582.07,350.60,336.60,30.90,0000 0000 0000 0000 000000
2014-02-25 01:23:27,0.27,11.40,1.00,16.69,22.41,25.56,6.25,32.96,1031.27,2053.01,1125.59,1461.91,1581.93,349.45,335.27,30.91,0000 0000 0000 0000 000000
2014-02-25 01:24:28,0.50,11.40,1.00,16.68,22.41,25.55,6.26,33.00,1031.27,2053.00,1125.23,1461.55,1581.47,350.07,335.87,30.91,0000 0000 0000 0000 000000
2014-02-25 01:25:28,0.71,11.40,1.00,16.67,22.41,25.50,6.12,32.88,1031.27,2053.00,1125.07,1461.20,1581.17,349.79,335.48,30.92,0000 0000 0000 0000 000000
2014-02-25 01:26:28,0.50,11.41,1.00,16.67,22.41,25.54,6.18,32.92,1031.28,2053.01,1124.89,1461.06,1581.05,349.33,335.18,30.93,0000 0000 0000 0000 000000
2014-02-25 01:27:29,0.37,11.41,1.00,16.69,22.41,25.55,6.26,32.92,1031.27,2053.00,1124.40,1460.97,1580.80,349.71,335.87,30.93,0000 0000 0000 0000 000000
2014-02-25 01:28:29,0.58,11.41,1.00,16.69,22.41,25.55,6.33,33.00,1031.29,2053.00,1124.14,1460.60,1580.36,350.16,335.95,30.94,0000 0000 0000 0000 000000
2014-02-25 01:29:29,0.64,11.42,1.00,16.69,22.41,25.51,6.29,33.17,1031.27,2053.01,1123.88,1460.24,1580.13,349.03,334.86,30.94,0000 0000 0000 0000 000000
2014-02-25 01:30:29,0.57,11.42,1.00,16.68,22.41,25.57,6.27,33.04,1031.27,2053.01,1123.38,1460.08,1580.04,350.34,336.13,30.95,0000 0000 0000 0000 000000
2014-02-25 01:31:30,0.58,11.42,1.00,16.69,22.40,25.53,6.22,33.25,1031.28,2053.02,1123.14,1460.02,1579.83,349.13,334.96,30.96,0000 0000 0000 0000 000000
2014-02-25 01:32:30,0.37,11.43,1.00,16.69,22.40,25.49,6.37,33.33,1031.27,2053.02,1122.96,1459.70,1579.38,351.27,336.99,30.96,0000 0000 0000 0000 000000
2014-02-25 01:33:30,0.56,11.43,1.00,16.69,22.40,25.51,6.22,32.83,1031.27,2053.03,1122.50,1459.28,1579.13,349.75,335.30,30.97,0000 0000 0000 0000 000000
2014-02-25 01:34:30,0.80,11.43,1.00,16.69,22.40,25.49,6.22,32.92,1031.27,2053.01,1122.18,1459.10,1579.03,349.13,334.95,30.97,0000 0000 0000 0000 000000
2014-02-25 01:35:31,0.43,11.44,1.00,16.71,22.40,25.52,6.37,32.75,1031.27,2053.02,1122.06,1459.01,1578.85,349.30,335.10,30.98,0000 0000 0000 0000 000000
2014-02-25 01:36:31,0.28,11.44,1.00,16.72,22.40,25.56,6.32,32.96,1031.27,2053.03,1121.97,1458.85,1578.40,350.35,335.66,30.98,0000 0000 0000 0000 000000
2014-02-25 01:37:31,0.45,11.44,1.00,16.72,22.40,25.53,6.20,32.92,1031.27,2053.03,1121.55,1458.39,1578.14,349.37,335.26,30.99,0000 0000 0000 0000 000000
2014-02-25 01:38:31,0.70,11.44,1.00,16.72,22.40,25.59,6.08,33.08,1031.27,2053.03,1121.22,1458.14,1578.04,348.61,334.76,31.00,0000 0000 0000 0000 000000
2014-02-25 01:39:32,0.53,11.45,1.00,16.72,22.40,25.55,6.26,33.21,1031.27,2053.04,1121.08,1458.05,1577.76,348.54,334.36,31.00,0000 0000 0000 0000 000000
2014-02-25 01:40:32,0.33,11.45,1.00,16.72,22.40,25.50,6.19,32.75,1031.27,2053.04,1120.91,1457.97,1577.31,351.06,335.72,31.01,0000 0000 0000 0000 000000
2014-02-25 01:41:32,0.46,11.45,1.00,16.72,22.40,25.54,6.23,32.83,1031.27,2053.05,1120.42,1457.56,1577.10,350.14,335.39,31.01,0000 0000 0000 0000 000000
2014-02-25 01:42:32,0.71,11.46,1.00,16.73,22.39,25.52,6.27,32.92,1031.27,2053.05,1120.15,1457.21,1577.00,349.48,335.60,31.02,0000 0000 0000 0000 000000
2014-02-25 01:43:33,0.57,11.46,1.00,16.73,22.39,25.53,6.39,32.88,1031.27,2053.05,1120.04,1457.07,1576.60,349.58,335.75,31.03,0000 0000 0000 0000 000000
2014-02-25 01:44:33,0.37,11.46,1.00,16.73,22.40,25.48,6.27,32.83,1031.27,2053.04,1119.64,1456.97,1576.22,349.30,335.06,31.03,0000 0000 0000 0000 000000
2014-02-25 01:45:33,0.54,11.47,1.00,16.74,22.40,25.47,6.25,32.92,1031.27,2053.03,1119.25,1456.60,1576.08,349.84,335.58,31.04,0000 0000 0000 0000 000000
2014-02-25 01:46:34,0.62,11.47,1.00,16.74,22.39,25.52,6.25,32.71,1031.27,2053.02,1119.06,1456.24,1575.97,350.68,336.39,31.04,0000 0000 0000 0000 000000
2014-02-25 01:47:34,0.56,11.47,1.00,16.74,22.39,25.50,6.21,32.96,1031.27,2053.04,1118.60,1456.08,1575.51,349.96,335.13,31.05,0000 0000 0000 0000 000000
2014-02-25 01:48:34,0.61,11.48,1.00,16.73,22.39,25.48,6.32,33.08,1031.27,2053.04,1118.22,1456.00,1575.19,350.36,336.09,31.05,0000 0000 0000 0000 000000
2014-02-25 01:49:35,0.58,11.48,1.00,16.74,22.39,25.45,6.17,32.83,1031.27,2053.04,1118.07,1455.67,1575.06,349.73,335.47,31.06,0000 0000 0000 0000 000000
2014-02-25 01:50:35,0.40,11.48,1.00,16.74,22.39,25.48,6.27,32.75,1031.27,2053.03,1117.74,1455.26,1574.90,349.55,335.45,31.07,0000 0000 0000 0000 000000
2014-02-25 01:51:35,0.66,11.49,1.00,16.74,22.39,25.48,6.23,32.71,1031.27,2053.02,1117.29,1455.09,1574.42,349.90,335.63,31.07,0000 0000 0000 0000 000000
2014-02-25 01:52:35,0.67,11.49,1.00,16.74,22.39,25.48,6.47,32.79,1031.27,2053.01,1117.10,1455.00,1574.16,350.89,336.58,31.08,0000 0000 0000 0000 000000
2014-02-25 01:53:36,0.38,11.49,1.00,16.74,22.39,25.48,6.30,32.75,1031.27,2053.00,1116.96,1454.58,1574.04,350.32,335.70,31.08,0000 0000 0000 0000 000000
2014-02-25 01:54:36,0.52,11.49,1.00,16.74,22.39,25.47,6.27,32.71,1031.27,2053.00,1116.48,1454.23,1573.69,349.64,335.38,31.09,0000 0000 0000 0000 000000
2014-02-25 01:55:36,0.74,11.50,1.00,16.74,22.39,25.50,6.14,32.92,1031.27,2053.01,1116.17,1454.08,1573.26,349.50,335.15,31.10,0000 0000 0000 0000 000000
2014-02-25 01:56:36,0.53,11.51,1.00,16.74,22.39,25.51,6.38,32.71,1031.27,2053.01,1115.93,1454.00,1573.09,350.88,336.57,31.10,0000 0000 0000 0000 000000
2014-02-25 01:57:37,0.46,11.51,1.00,16.74,22.39,25.49,6.33,32.71,1031.27,2053.02,1115.42,1453.60,1573.01,350.00,335.73,31.11,0000 0000 0000 0000 000000
2014-02-25 01:58:37,0.69,11.51,1.00,16.73,22.39,25.55,6.23,32.71,1031.27,2053.01,1115.15,1453.23,1572.65,349.32,335.55,31.11,0000 0000 0000 0000 000000
2014-02-25 01:59:37,0.62,11.51,1.00,16.72,22.39,25.52,6.49,32.83,1031.27,2053.01,1114.96,1453.08,1572.25,351.04,336.82,31.12,0000 0000 0000 0000 000000
2014-02-25 02:00:38,0.52,11.52,1.00,16.71,22.39,25.53,6.35,32.79,1031.27,2053.01,1114.45,1453.01,1572.09,351.19,336.91,31.13,0000 0000 0000 0000 000000
2014-02-25 02:01:38,0.49,11.52,1.00,16.71,22.39,25.51,6.31,32.83,1031.27,2053.02,1114.17,1452.76,1572.02,350.03,335.79,31.13,0000 0000 0000 0000 000000
2014-02-25 02:02:38,0.49,11.52,1.00,16.71,22.39,25.53,6.36,32.79,1031.27,2053.02,1114.04,1452.33,1571.75,351.02,336.69,31.14,0000 0000 0000 0000 000000
2014-02-25 02:03:38,0.57,11.53,1.00,16.70,22.39,25.53,6.33,32.83,1031.27,2053.01,1113.63,1452.11,1571.32,350.21,335.98,31.14,0000 0000 0000 0000 000000
2014-02-25 02:04:38,0.64,11.53,1.00,16.72,22.39,25.51,6.23,32.79,1031.27,2053.01,1113.24,1452.03,1571.11,349.22,335.20,31.15,0000 0000 0000 0000 000000
2014-02-25 02:05:39,0.47,11.53,1.00,16.73,22.39,25.48,6.18,32.88,1031.26,2053.00,1113.08,1451.89,1571.00,349.48,335.20,31.15,0000 0000 0000 0000 000000
2014-02-25 02:06:39,0.35,11.53,1.00,16.74,22.39,25.51,6.24,32.75,1031.26,2053.00,1112.97,1451.46,1570.56,349.48,335.24,31.16,0000 0000 0000 0000 000000
2014-02-25 02:07:39,0.61,11.54,1.00,16.74,22.39,25.52,6.16,32.79,1031.26,2053.01,1112.51,1451.17,1570.21,350.42,336.12,31.17,0000 0000 0000 0000 000000
2014-02-25 02:08:40,0.68,11.54,1.00,16.74,22.39,25.53,6.28,32.92,1031.26,2053.01,1112.19,1451.04,1570.06,350.09,335.52,31.17,0000 0000 0000 0000 000000
2014-02-25 02:09:40,0.44,11.55,1.00,16.74,22.39,25.50,6.36,32.92,1031.26,2053.02,1112.00,1450.87,1569.95,350.08,335.88,31.18,0000 0000 0000 0000 000000
2014-02-25 02:10:40,0.47,11.55,1.00,16.74,22.39,25.52,6.21,33.04,1031.26,2053.03,1111.56,1450.42,1569.48,349.18,335.16,31.18,0000 0000 0000 0000 000000
2014-02-25 02:11:41,0.78,11.56,1.00,16.75,22.39,25.53,6.35,32.75,1031.26,2053.03,1111.21,1450.15,1569.17,349.45,335.19,31.19,0000 0000 0000 0000 000000
2014-02-25 02:12:41,0.63,11.56,1.00,16.77,22.39,25.54,6.27,33.00,1031.26,2053.04,1111.07,1450.05,1569.06,350.75,336.45,31.20,0000 0000 0000 0000 000000
2014-02-25 02:13:41,0.26,11.56,1.00,16.77,22.39,25.50,6.33,32.92,1031.26,2053.03,1110.71,1449.95,1568.93,350.47,336.32,31.20,0000 0000 0000 0000 000000
2014-02-25 02:14:41,0.52,11.56,1.00,16.77,22.39,25.49,6.35,32.79,1031.26,2053.01,1110.26,1449.52,1568.43,350.46,336.48,31.21,0000 0000 0000 0000 000000
2014-02-25 02:15:42,0.80,11.57,1.00,16.76,22.39,25.50,6.34,32.83,1031.26,2053.01,1110.08,1449.19,1568.16,350.46,336.19,31.21,0000 0000 0000 0000 000000
2014-02-25 02:16:42,0.52,11.57,1.00,16.77,22.39,25.52,6.27,33.17,1031.26,2053.02,1109.81,1449.06,1568.05,349.94,336.00,31.22,0000 0000 0000 0000 000000
2014-02-25 02:17:42,0.43,11.57,1.00,16.77,22.39,25.50,6.22,33.13,1031.26,2053.02,1109.32,1449.00,1567.91,349.95,335.81,31.22,0000 0000 0000 0000 000000
2014-02-25 02:18:42,0.56,11.58,1.00,16.77,22.39,25.52,6.27,32.88,1031.26,2053.03,1109.11,1448.59,1567.47,349.97,335.78,31.23,0000 0000 0000 0000 000000
2014-02-25 02:19:43,0.60,11.58,1.00,16.77,22.39,25.48,6.38,32.96,1031.26,2053.04,1108.99,1448.25,1567.19,350.77,336.50,31.24,0000 0000 0000 0000 000000
2014-02-25 02:20:43,0.51,11.58,1.00,16.77,22.39,25.50,6.44,33.29,1031.26,2053.03,1108.71,1448.09,1567.06,349.61,335.32,31.24,0000 0000 0000 0000 000000
2014-02-25 02:21:43,0.45,11.59,1.00,16.79,22.39,25.49,6.45,33.50,1031.26,2053.04,1108.28,1448.03,1566.98,351.10,336.60,31.25,0000 0000 0000 0000 000000
2014-02-25 02:22:43,0.46,11.59,1.00,16.79,22.39,25.47,6.42,33.63,1031.26,2053.03,1108.10,1447.93,1566.53,350.52,336.17,31.25,0000 0000 0000 0000 000000
2014-02-25 02:23:44,0.40,11.59,1.00,16.78,22.39,25.49,6.27,33.25,1031.28,2053.07,1108.03,1447.57,1566.20,350.57,336.23,31.26,0000 0000 0000 0000 000000
2014-02-25 02:24:44,0.47,11.59,1.00,16.79,22.39,25.48,6.28,33.00,1031.27,2053.08,1107.72,1447.22,1566.07,349.52,335.21,31.27,0000 0000 0000 0000 000000
2014-02-25 02:25:44,0.60,11.59,1.00,16.79,22.39,25.45,6.23,32.83,1031.27,2053.07,1107.28,1447.08,1566.00,349.71,335.39,31.27,0000 0000 0000 0000 000000
2014-02-25 02:26:45,0.54,11.60,1.00,16.79,22.39,25.47,6.19,32.67,1031.28,2053.09,1107.10,1447.02,1565.71,349.38,335.08,31.28,0000 0000 0000 0000 000000
2014-02-25 02:27:45,0.37,11.60,1.00,16.79,22.39,25.47,6.25,32.67,1031.27,2053.08,1107.00,1446.81,1565.29,350.32,335.98,31.28,0000 0000 0000 0000 000000
2014-02-25 02:28:45,0.44,11.60,1.00,16.80,22.39,25.48,6.17,32.83,1031.27,2053.08,1106.65,1446.37,1565.11,349.48,335.16,31.29,0000 0000 0000 0000 000000
2014-02-25 02:29:46,0.67,11.61,1.00,16.81,22.39,25.46,6.25,33.08,1031.28,2053.09,1106.24,1446.13,1565.03,349.70,335.37,31.30,0000 0000 0000 0000 000000
2014-02-25 02:30:46,0.48,11.61,1.00,16.82,22.39,25.48,6.39,33.25,1031.27,2053.06,1106.08,1446.03,1564.81,350.43,336.34,31.30,0000 0000 0000 0000 000000
2014-02-25 02:31:46,0.31,11.61,1.00,16.82,22.39,25.48,6.29,32.92,1031.27,2053.10,1105.94,1445.97,1564.37,350.51,336.45,31.31,0000 0000 0000 0000 000000
2014-02-25 02:32:46,0.49,11.62,1.00,16.82,22.39,25.49,6.28,32.83,1031.27,2053.22,1105.46,1445.67,1564.14,349.81,335.46,31.31,0000 0000 0000 0000 000000
2014-02-25 02:33:47,0.80,11.62,1.00,16.82,22.39,25.47,6.28,32.96,1031.28,2053.18,1105.18,1445.27,1564.05,349.56,335.38,31.32,0000 0000 0000 0000 000000
2014-02-25 02:34:47,0.48,11.62,1.00,16.81,22.39,25.47,6.27,32.75,1031.28,2053.13,1104.94,1445.09,1563.71,350.21,335.84,31.32,0000 0000 0000 0000 000000